TimeCST,TemperatureF,Dew PointF,Humidity,Sea Level PressureIn,VisibilityMPH,Wind Direction,Wind SpeedMPH,Gust SpeedMPH,PrecipitationIn,Events,Conditions,WindDirDegrees,DateUTC
12:15 AM,45.7,37.0,72,30.39,10.0,Calm,Calm,-,N/A,,Overcast,0,2013-01-04 06:15:00
12:35 AM,45.9,36.5,70,30.39,10.0,Calm,Calm,-,N/A,,Overcast,0,2013-01-04 06:35:00
12:55 AM,46.0,36.7,70,30.39,10.0,Calm,Calm,-,N/A,,Overcast,0,2013-01-04 06:55:00
1:15 AM,46.4,33.1,60,30.39,10.0,ESE,3.5,-,N/A,,Overcast,110,2013-01-04 07:15:00
1:35 AM,46.4,34.5,63,30.39,10.0,North,3.5,-,N/A,,Overcast,360,2013-01-04 07:35:00
1:55 AM,46.0,33.6,62,30.39,10.0,NNE,4.6,-,N/A,,Overcast,30,2013-01-04 07:55:00
2:15 AM,46.0,34.2,63,30.39,10.0,NNE,3.5,-,N/A,,Overcast,30,2013-01-04 08:15:00
2:55 AM,45.0,35.2,69,30.40,10.0,NNW,3.5,-,N/A,,Overcast,330,2013-01-04 08:55:00
5:35 AM,43.9,35.6,73,30.40,10.0,North,9.2,-,N/A,,Overcast,360,2013-01-04 11:35:00
5:55 AM,43.9,35.6,73,30.40,10.0,North,8.1,-,N/A,,Overcast,350,2013-01-04 11:55:00
6:15 AM,44.1,35.2,71,30.41,10.0,North,10.4,-,N/A,,Overcast,350,2013-01-04 12:15:00
6:35 AM,44.2,35.1,70,30.41,10.0,North,8.1,-,N/A,,Overcast,360,2013-01-04 12:35:00
6:55 AM,44.4,35.4,71,30.42,10.0,NNW,10.4,-,N/A,,Overcast,340,2013-01-04 12:55:00
7:15 AM,44.2,35.1,70,30.42,10.0,North,6.9,-,N/A,,Overcast,360,2013-01-04 13:15:00
7:35 AM,44.2,35.1,70,30.42,10.0,North,9.2,-,N/A,,Overcast,350,2013-01-04 13:35:00
7:55 AM,44.2,35.6,72,30.43,10.0,North,10.4,-,N/A,,Overcast,350,2013-01-04 13:55:00
8:15 AM,44.2,35.6,72,30.45,10.0,North,9.2,-,N/A,,Overcast,360,2013-01-04 14:15:00
8:35 AM,44.6,35.6,71,30.45,10.0,North,5.8,-,N/A,,Overcast,360,2013-01-04 14:35:00
8:55 AM,44.4,36.0,72,30.45,10.0,North,10.4,-,N/A,,Overcast,360,2013-01-04 14:55:00
9:15 AM,44.6,36.3,73,30.46,10.0,North,8.1,-,N/A,,Overcast,350,2013-01-04 15:15:00
9:35 AM,44.6,36.1,72,30.47,10.0,North,10.4,-,N/A,,Overcast,350,2013-01-04 15:35:00
9:55 AM,44.6,36.5,73,30.48,10.0,North,8.1,-,N/A,,Overcast,360,2013-01-04 15:55:00
10:15 AM,44.8,36.5,73,30.47,10.0,North,6.9,-,N/A,,Overcast,360,2013-01-04 16:15:00
10:35 AM,44.8,36.7,73,30.47,10.0,North,8.1,-,N/A,,Overcast,10,2013-01-04 16:35:00
10:55 AM,44.8,36.9,74,30.47,10.0,North,9.2,-,N/A,,Overcast,350,2013-01-04 16:55:00
11:15 AM,44.6,37.2,75,30.46,10.0,NNW,6.9,-,N/A,,Overcast,330,2013-01-04 17:15:00
11:35 AM,44.8,37.4,75,30.45,10.0,NNW,9.2,-,N/A,,Overcast,340,2013-01-04 17:35:00
11:55 AM,45.0,37.4,75,30.45,10.0,NNW,5.8,9.2,N/A,,Overcast,340,2013-01-04 17:55:00
12:15 PM,45.1,37.4,74,30.44,10.0,North,6.9,-,N/A,,Overcast,350,2013-01-04 18:15:00
12:35 PM,45.5,37.8,74,30.43,10.0,NNW,4.6,-,N/A,,Overcast,330,2013-01-04 18:35:00
12:55 PM,44.8,38.3,78,30.42,10.0,North,6.9,-,N/A,,Overcast,350,2013-01-04 18:55:00
1:15 PM,45.3,38.3,76,30.40,10.0,NW,5.8,-,N/A,,Overcast,320,2013-01-04 19:15:00
1:35 PM,45.3,38.5,77,30.39,10.0,NW,9.2,-,N/A,,Overcast,320,2013-01-04 19:35:00
1:55 PM,45.5,38.5,76,30.38,10.0,North,8.1,-,N/A,,Overcast,350,2013-01-04 19:55:00
2:15 PM,45.7,38.7,76,30.37,10.0,NNW,6.9,-,N/A,,Overcast,340,2013-01-04 20:15:00
2:35 PM,45.7,38.3,75,30.37,10.0,North,5.8,-,N/A,,Overcast,350,2013-01-04 20:35:00
2:55 PM,45.7,38.5,76,30.36,10.0,NNW,6.9,-,N/A,,Overcast,340,2013-01-04 20:55:00
3:15 PM,45.7,38.7,76,30.36,10.0,NNW,6.9,-,N/A,,Overcast,340,2013-01-04 21:15:00
3:35 PM,46.0,39.0,76,30.36,10.0,North,8.1,-,N/A,,Overcast,360,2013-01-04 21:35:00
3:55 PM,45.9,39.2,78,30.36,10.0,North,5.8,-,N/A,,Overcast,350,2013-01-04 21:55:00
4:15 PM,45.7,39.2,78,30.36,10.0,North,8.1,-,N/A,,Overcast,360,2013-01-04 22:15:00
4:35 PM,45.5,39.2,79,30.36,10.0,North,8.1,-,N/A,,Overcast,350,2013-01-04 22:35:00
4:55 PM,45.5,39.0,78,30.37,10.0,North,6.9,-,N/A,,Overcast,360,2013-01-04 22:55:00
5:15 PM,45.3,39.4,80,30.37,10.0,NNW,5.8,-,N/A,,Overcast,340,2013-01-04 23:15:00
5:35 PM,45.1,39.2,80,30.37,10.0,NNW,6.9,-,N/A,,Overcast,330,2013-01-04 23:35:00
5:55 PM,45.0,39.4,81,30.38,10.0,NNW,5.8,-,N/A,,Overcast,330,2013-01-04 23:55:00
6:15 PM,45.0,39.2,80,30.38,10.0,NNW,4.6,-,N/A,,Overcast,340,2013-01-05 00:15:00
6:35 PM,45.0,39.4,81,30.39,10.0,NNW,6.9,-,N/A,,Overcast,330,2013-01-05 00:35:00
6:55 PM,45.0,39.6,81,30.39,10.0,NNW,8.1,-,N/A,,Overcast,330,2013-01-05 00:55:00
7:15 PM,44.6,40.1,84,30.39,7.0,NNW,6.9,-,N/A,,Overcast,340,2013-01-05 01:15:00
7:35 PM,44.2,40.5,87,30.40,7.0,NNW,6.9,-,N/A,,Overcast,340,2013-01-05 01:35:00
7:55 PM,44.1,40.8,88,30.40,7.0,NW,6.9,-,N/A,,Overcast,310,2013-01-05 01:55:00
8:15 PM,43.7,42.8,97,30.40,3.0,NW,5.8,-,N/A,,Overcast,310,2013-01-05 02:15:00
8:35 PM,43.5,42.8,97,30.40,3.0,NW,4.6,-,N/A,,Overcast,320,2013-01-05 02:35:00
8:55 PM,43.3,43.0,99,30.41,2.5,NW,5.8,-,N/A,,Overcast,320,2013-01-05 02:55:00
9:15 PM,43.3,43.2,99,30.41,3.0,NW,6.9,-,N/A,,Overcast,320,2013-01-05 03:15:00
9:35 PM,43.3,43.2,99,30.40,2.5,NW,6.9,-,N/A,,Overcast,320,2013-01-05 03:35:00
9:55 PM,43.3,43.2,99,30.40,3.0,NW,4.6,-,N/A,,Overcast,320,2013-01-05 03:55:00
10:15 PM,43.2,43.0,99,30.40,4.0,NW,6.9,-,N/A,,Overcast,320,2013-01-05 04:15:00
10:35 PM,43.2,43.0,99,30.39,3.0,NW,5.8,-,N/A,,Overcast,320,2013-01-05 04:35:00
10:55 PM,43.0,43.0,100,30.39,2.5,NW,9.2,-,N/A,,Overcast,320,2013-01-05 04:55:00
11:15 PM,43.0,43.0,100,30.38,2.0,NNW,6.9,-,N/A,,Overcast,330,2013-01-05 05:15:00
11:35 PM,43.0,43.0,100,30.38,2.0,NW,6.9,-,N/A,,Light Drizzle,320,2013-01-05 05:35:00
11:55 PM,43.0,43.0,100,30.37,2.5,NNW,8.1,-,N/A,,Light Drizzle,330,2013-01-05 05:55:00